Carriel Sur Airport
SCIE : now visible

Airfield :











YOU CAN JOIN US ON...

 
LOGIN :

Register | Disclaimer

   EN    FR    IT 

 









Legend :    VFR   Marginal VFR   IFR   Intensive IFR   Very Intensive IFR
Visi :
Ceiling :
>= 8 km
>= 3000ft
5 to 8 km
1000 to 3000 ft
1500m to 5 km
500 to 1000 ft
800 to 1500m
200 to 500 ft
< 800m
< 200 ft
Symbols :   Thunderstorms  Fog  Heavy snow  Heavy precipitations  Wind > 20 kt






- Airport Elevation : 26 ft
- IATA code : CCP


SCIE - Carriel Sur

CURRENT METAR :
  • 262200Z 22008KT 9999 FEW040 BKN050 12/09 Q1025

EXPIRED METARs :
  • 262100Z 22007KT 190V250 9999 FEW025 BKN055 13/09 Q1025
  • 262000Z 27006KT 240V300 9999 FEW025 BKN050 13/08 Q1025

TAF TAF SCIE
Valid from the 26 at 18:00 until the 27 at 18:00 UTC


261600Z 2618/2718 15004KT 9999 FEW030 BKN050 TX14/2619Z TN05/2710Z
TEMPO 2618/2622 24012KT SCT040
BECMG 2700/2702 21006KT CAVOK
BECMG 2704/2706 5000 BR NSC
TEMPO 2706/2712 15004KT 3000 BR BKN006
BECMG 2716/2718 CAVOK
SCEZ FIR / South America



MET'MAP, your aeronautical weather chart ! - Copyright ORBIFLY December 2007 - Disclaimer

ORBIFLY MET'MAP TEAM :

Programming & Development : Alexandra Zaïnal
Concept & original design : Baudouin d'Aumeries
Assistance for programming : Marc-Olivier Méhu
Technical & hardware support : Manuel Goepfert

Contact : metmap@orbifly.com




SOURCES & CREDITS :

   NOAA       Earth
Advisory